Simultaneous Nadir Overpasses (SNOs) Predictions

Prediction of SNOs between METOP-A and NPP Satellite Orbit:

Table of predicted SNOs for the next 14.0 days since TLE Epoch: 4/24/2014
Index Date (METOP-A) Time (METOP-A) Lat,Lon (METOP-A) SZA (METOP-A ) Date (NPP) Time (NPP) Lat,Lon (NPP) SZA (NPP ) Distance(km) Time Diff (sec)
1 05/07/2014 22:51:02 73.74,-168.94 56.74 05/07/2014 22:49:55 73.76,-171.80 56.88 89.04 67
2 05/07/2014 23:41:45 -73.69, -1.76 123.33 05/07/2014 23:40:37 -73.67, -4.25 123.24 78.12 68
3 05/08/2014 00:32:29 73.48, 165.09 56.47 05/08/2014 00:31:19 73.47, 163.52 56.54 49.66 70
4 05/08/2014 01:23:13 -73.37, -27.83 123.64 05/08/2014 01:22:01 -73.37, -28.94 123.58 35.35 72
5 05/08/2014 02:13:57 73.16, 139.03 56.16 05/08/2014 02:12:43 73.17, 138.83 56.19 6.81 74
